Regional Weather Roundup
Issued by NWS

Home | Current Version | Previous Version | Graphics & Text | Print | Product List | Glossary On
Versions: 1 2 3 4 5 6 7 8 9 10 11 12 13 14 15 16 17 18 19 20 21 22 23 24 25 26 27
000
ASUS45 KBOU 192107
RWRCO

WEATHER ROUNDUP FOR COLORADO
NATIONAL WEATHER SERVICE DENVER/BOULDER CO
300 PM MDT TUE SEP 19 2017

NOTE: "FAIR" INDICATES FEW OR NO CLOUDS BELOW 12000 FEET WITH NO
SIGNIFICANT WEATHER AND/OR OBSTRUCTIONS TO VISIBILITY.

COZ001>005-013-030-031-192200-
...NORTHWEST COLORADO...

CITY           SKY/WX    TMP DP  RH WIND       PRES   REMARKS
CRAIG          CLOUDY    49  33  54 NW18G37   29.91R
HAYDEN         FAIR      57  32  38 NW16G29   29.89R
MEEKER         PTSUNNY   72  25  17 SW25G33   29.80F
RABBIT EARS PA CLOUDY    45  30  57 W14G29    30.01R
STEAMBOAT SPGS CLOUDY    58  34  39 W16G23    29.83R
WALDEN         PTSUNNY   63  23  22 W21       29.87R
$$

COZ006>008-011-192200-
...WEST CENTRAL VALLEYS...

CITY           SKY/WX    TMP DP  RH WIND       PRES   REMARKS
GRAND JUNCTION FAIR      80  27  14 W23G35    29.75F
MONTROSE       FAIR      75  25  15 W15G22    29.86F
EAGLE          FAIR      74  23  15 SW30G48   29.81F
RIFLE          FAIR      80  22  11 W21G31    29.76F
DELTA          FAIR      83  21  10 SW28G33   29.80F
NUCLA          FAIR      75  19  12 SW18G33   29.93F
$$

COZ017>023-064>068-192200-
...SOUTHWEST COLORADO...

CITY           SKY/WX    TMP DP  RH WIND       PRES   REMARKS
DURANGO        FAIR      74  20  13 W16       29.99F
CORTEZ         FAIR      78  15   9 SW15G31   29.93F
PAGOSA SPRINGS FAIR      69  10  10 SW16G28   30.04F
TELLURIDE      FAIR      65  15  14 SW17G28   30.08F
WOLF CREEK PAS FAIR      45  19  36 S31G44    30.26S
$$

COZ009-010-012-014-032>034-037-058>063-192200-
...CENTRAL COLORADO...

CITY           SKY/WX    TMP DP  RH WIND       PRES   REMARKS
ASPEN          FAIR      70  17  13 VRB3      29.89R
BUENA VISTA    FAIR      74  10   8 W20G39    29.86R
COPPER MTN     FAIR      55  10  16 W24G46    30.12R
BERTHOUD PASS  FAIR      46  37  71 W29G47    30.14R
COTTONWOOD PAS FAIR      66  -4   6 SW18G37   29.98S
GUNNISON       FAIR      70  21  15 W15G37    29.91S
KREMMLING      FAIR      77  12   8 W21G33    29.83F
LEADVILLE      FAIR      62   9  12 W15G33    29.96F
SALIDA         FAIR      78  10   7 W14G23    29.91F
SUNLIGHT       PTSUNNY   54  21  28 SW18G32   30.10R
WILKERSON PASS FAIR      59   7  12 SW21G35   30.06S
$$

COZ069>075-192200-
...SAN LUIS VALLEY/SANGRE DE CRISTO MOUNTAINS...

CITY           SKY/WX    TMP DP  RH WIND       PRES   REMARKS
ALAMOSA        FAIR      72  14  11 SW25G35   29.94F
DEL NORTE      FAIR      67  19  15 SW29G38   29.95F
LA VETA PASS   FAIR      61  19  20 S18       30.15F
SAGUACHE       FAIR      75  21  13 W18G29    29.88F
$$

COZ035-036-038>040-192200-
...NORTHERN COLORADO FRONT RANGE...

CITY           SKY/WX    TMP DP  RH WIND       PRES   REMARKS
DENVER INTL AP PTSUNNY   88  13   6 NE7       29.59F
DMNS CITY PARK   N/A     85  17   8 N12G21    29.58S
AURORA         MOSUNNY   88  13   6 N6        29.59F
FRONT RANGE AP PTSUNNY   90  18   7 E12G21    29.60F
ERIE MUNI ARPT FAIR      86  10   6 N10       29.63S
BOULDER MUN AP FAIR      86  25  10 NE3       29.60R
CENTENNIAL     FAIR      87   9   5 NW13G23   29.59F
BROOMFIELD     PTSUNNY   86  19   8 NE10G17   29.63F
FORT COLLINS   FAIR      86  24  10 SW26G38   29.59F
LONGMONT       FAIR      88  25  10 E8        29.60S
$$

COZ041-046-047-076>085-087-088-192200-
...PIKES PEAK/PALMER DIVIDE AND SOUTHERN FOOTHILLS...

CITY           SKY/WX    TMP DP  RH WIND       PRES   REMARKS
COLO. SPRINGS  PTSUNNY   83  20   9 S30G40    29.70F
A. F. ACADEMY  FAIR      80   8   6 W17G26    29.71F
SCHRIEVER AFB  FAIR      80  16   9 S23G33    29.73F
CHEYENNE MTN   NOT AVBL
ELLICOTT         N/A      1  32 100 S21G31    29.71  WCI -21
FALCON         FAIR      79  16   9 S25       29.76F
FORT CARSON    FAIR      83  13   7 S22G33    29.68F
LIMON          FAIR      79  16   9 S24G31    29.65F
MONUMENT HILL  FAIR      79  14   8 W21G29    29.74F
CANON CITY     SUNNY     88  21   8 SW18G24   29.65F
WALSENBURG     FAIR      81  21  11 SW21G39   29.80F
TRINIDAD       FAIR      78  28  16 SW10      29.79F
$$

COZ042>045-048>051-090-091-192200-
...NORTHEAST COLORADO...

CITY           SKY/WX    TMP DP  RH WIND       PRES   REMARKS
GREELEY ARPT   NOT AVBL
AKRON          FAIR      85  18   8 SW10      29.59F
BURLINGTON     FAIR      88  20   8 SW25G32   29.60F
WRAY           FAIR      91  18   6 SW15G24   29.54F
YUMA           FAIR      86   3   4 S17G23    29.56F
STERLING       FAIR      86  34  15 CALM      29.54F
HOLYOKE        FAIR      88  30  12 S13       29.54F
FORT MORGAN    FAIR      87  22   9 SE5       29.58F
$$

COZ086-089-092>099-192200-
...SOUTHEAST COLORADO...

CITY           SKY/WX    TMP DP  RH WIND       PRES   REMARKS
PUEBLO         FAIR      87  20   8 S22G29    29.63F
LA JUNTA       FAIR      87  16   7 SW28      29.64F
LAMAR          FAIR      92  18   6 W18G28    29.59F
SPRINGFIELD    NOT AVBL
$$




USA.gov is the U.S. government's official web portal to all federal, state and local government web resources and services.